Regional Weather Roundup
Issued by NWS

Home | Current Version | Previous Version | Graphics & Text | Print | Product List | Glossary On
Versions: 1 2 3 4 5 6 7 8 9 10 11 12 13 14 15 16 17 18 19 20 21 22 23 24 25 26 27 28 29 30 31 32 33 34 35 36 37 38 39 40 41 42 43 44 45 46 47 48 49 50
000
ASUS43 KFSD 090402
RWRSD

WEATHER ROUNDUP FOR SOUTH DAKOTA
NATIONAL WEATHER SERVICE SIOUX FALLS SD
1000 PM CST THU DEC 08 2016

NOTE: "FAIR" INDICATES FEW OR NO CLOUDS BELOW 12,000 FEET WITH NO
SIGNIFICANT WEATHER AND/OR OBSTRUCTIONS TO VISIBILITY.


SDZ001>005-009-010-012>017-090500-
NORTHWEST AND NORTH CENTRAL SOUTH DAKOTA

CITY           SKY/WX    TMP DP  RH WIND       PRES   REMARKS
BUFFALO          N/A     -6 -10  83 CALM      30.35F
MOBRIDGE       CLOUDY    -3 -10  72 N6        30.56S WCI -15
$$

SDZ012>016-024>037-041>051-057-063-072>074-090500-
SOUTHWEST AND SOUTH CENTRAL SOUTH DAKOTA

CITY           SKY/WX    TMP DP  RH WIND       PRES   REMARKS
RAPID CTY ARPT CLOUDY    -6 -10  83 CALM      30.42F
PIERRE         CLOUDY     3  -3  76 N7        30.59F WCI  -9
CUSTER         CLOUDY    -6 -13  71 NW3       30.18F
ELLSWORTH AFB  CLOUDY     1  -6  70 S2        30.40F
PHILIP         CLOUDY    -9 -13  83 CALM      30.55F
PINE RIDGE     CLOUDY    -7 -11  83 E5        30.40F WCI -18
SPEARFISH      FAIR      -6 -13  71 CALM      30.33S
WINNER         FAIR       1  -5  75 W5        30.58S WCI  -9
$$

SDZ004>011-016>023-039-040-090500-
NORTHEAST SOUTH DAKOTA

CITY           SKY/WX    TMP DP  RH WIND       PRES   REMARKS
ABERDEEN       CLEAR     -1  -7  75 N3        30.62F
WATERTOWN      CLEAR      1  -3  83 NW10      30.54S WCI -15
SISSETON         N/A      2  -4  76 NW7       30.59S WCI -11
$$

SDZ017-020-022-023-036>040-048>070-090500-
SOUTHEAST SOUTH DAKOTA

CITY           SKY/WX    TMP DP  RH WIND       PRES   REMARKS
SIOUX FALLS    CLEAR      7   3  84 NW6       30.59R WCI  -3
HURON          CLEAR     -1  -4  87 NW6       30.63F WCI -13
CHAMBERLAIN    LGT SNOW   6   3  84 N6        30.61S WCI  -4
MITCHELL       CLEAR      3  -1  83 NW8       30.65F WCI -10
YANKTON        CLEAR      9   1  72 W9        30.63F WCI  -5
$$

ABBREVIATIONS USED IN REMARKS
   TC - TEMPERATURE IN CELSIUS
  WCI - WIND CHILL INDEX
   HX - HEAT INDEX
  VSB - VISIBILITY





USA.gov is the U.S. government's official web portal to all federal, state and local government web resources and services.